Terminal Aerodrome Forecast
Issued by NWS

Home | Current Version | Previous Version | Text Only | Print | Product List | Glossary On
Versions: 1 2 3 4 5 6 7 8 9 10 11 12 13 14 15 16 17 18 19 20 21 22 23 24 25 26 27 28 29 30 31 32 33 34 35 36 37 38 39 40 41 42 43 44 45 46 47 48 49 50
000
FTUS43 KMKX 010524
TAFUES
TAF
KUES 010524Z 0106/0206 05012KT 1SM -SN OVC006
     FM010800 05012G19KT 3/4SM -SN OVC005
     FM020000 03017G25KT 4SM -SN BLSN OVC008
     FM020300 01016G24KT 4SM -SN BLSN OVC015=

USA.gov is the U.S. government's official web portal to all federal, state and local government web resources and services.